Hourly Data Report for September 01, 2020

TORONTO CITY
ONTARIO
Current Station Operator: ECCC - MSC

43°40'00.000" N
79°24'00.000" W
112.50 m
6158355
71508
XTO

Download Data

Hourly Data (September 2020)
Hourly Data Report for September 1, 2020
TIME
LST
Temp Definition
°C
Dew Point Definition
°C
Rel Hum Definition
%
Precip. Amount Definition
mm

Wind Dir Definition
10's deg

Wind Spd Definition
km/h
Visibility Definition
km
Stn Press Definition
kPa
Hmdx Definition


Wind Chill Definition


Weather Definition


00:00 20.6 16.6 78 0.0       100.01 26   LegendNANA
01:00 21.2 16.8 76 0.0       100.00 26   LegendNANA
02:00 20.7 16.7 78 0.0       99.99 26   LegendNANA
03:00 20.3 16.8 80 0.0       100.01 25   LegendNANA
04:00 20.3 16.8 80 0.0       100.01 25   LegendNANA
05:00 20.2 17.0 82 0.0       100.03 25   LegendNANA
06:00 20.4 17.0 81 0.0       100.06 26   LegendNANA
07:00 20.4 17.0 81 0.0       100.10 26   LegendNANA
08:00 21.7 17.5 77 0.0       100.13 27   LegendNANA
09:00 22.8 17.4 71 0.0       100.13 28   LegendNANA
10:00 23.9 17.5 68 0.0       100.17 30   LegendNANA
11:00 24.5 17.5 65 0.0       100.11 30   LegendNANA
12:00 26.4 17.9 60 0.0       100.07 32   LegendNANA
13:00 27.1 16.4 52 0.0       100.04 32   LegendNANA
14:00 27.3 15.7 49 0.2       99.97 32   LegendNANA
15:00 27.1 16.4 52 0.2       99.99 32   LegendNANA
16:00 24.9 18.8 69 0.0       99.96 32   LegendNANA
17:00 24.1 17.4 66 0.0       99.95 30   LegendNANA
18:00 23.5 17.5 69 0.0       99.89 29   LegendNANA
19:00 23.2 17.6 71 0.0       99.89 29   LegendNANA
20:00 22.9 18.3 75 0.0       99.88 29   LegendNANA
21:00 23.3 18.4 74 0.0       99.86 30   LegendNANA
22:00 23.3 18.2 73 0.0       99.81 29   LegendNANA
23:00 22.9 18.0 74 0.0       99.80 29   LegendNANA

Notes on Data Quality.

Legend

  • E = Estimated
  • M = Missing
  • NA = Not Available*
  • [empty] = Indicates an unobserved value
Date modified: